Date String (YYYY-MM-DD hh:mm:ss) UTC,Instrument flags,absolute air pressure of the measurement (hPa),sample flow rate (lpm),inlet stack bypass flow (lpm),air temperature of the measurement (°C),ambient temperature measured by the external sensor (°C),aerosol sample conditioner tube jacket temperature (°C),OPC LED temperature (°C),internal box temperature (°C),relative humidity of the measurement (%),span deviation,mass concentration of particles derived from Lorenz-Mie calculation of OPC scattering (μg/m³),mass concentration of particles derived from Lorenz-Mie calculation of OPC scattering (μg/m³),mass concentration of particles derived from Lorenz-Mie calculation of OPC scattering (μg/m³)
DateTimeUTC,F1_M11,P_M11,Q1_M11,Q2_M11,T1_M11,T2_M11,T3_M11,T4_M11,T5_M11,U1_M11,ZSPAN_M11,X0_M11,X2_M11,X1_M11
2023-08-03 09:00:00,SystemResetWarning,0835.5,5.00,000.00,031.0,025.5,000.0,038.9,031.1,33.5,0000.0,0004.52,0002.99,0002.28
2023-08-03 09:01:00,SystemResetWarning,0835.5,5.01,000.00,030.8,025.7,000.0,038.9,031.0,33.9,0000.0,0004.43,0002.94,0002.26
2023-08-03 09:02:00,SystemResetWarning,0835.5,4.99,000.00,030.7,026.1,000.0,039.0,031.0,34.2,0000.0,0004.73,0002.96,0002.26
2023-08-03 09:03:00,SystemResetWarning,0835.5,5.00,000.00,030.6,026.5,000.0,039.0,031.1,34.3,0000.0,0004.74,0002.97,0002.27
2023-08-03 09:04:00,SystemResetWarning,0835.5,5.00,000.00,030.6,026.8,000.0,039.0,031.2,34.5,0000.0,0004.67,0002.92,0002.24
2023-08-03 09:05:00,SystemResetWarning,0835.5,5.00,000.00,030.6,027.2,000.0,038.9,031.2,34.6,0000.0,0004.61,0002.89,0002.21
2023-08-03 09:06:00,SystemResetWarning,0835.4,5.01,000.00,030.5,027.4,000.0,038.9,031.2,34.8,0000.0,0004.54,0002.85,0002.20
2023-08-03 09:07:00,SystemResetWarning,0835.3,5.00,000.00,030.5,027.7,000.0,038.9,031.3,34.9,0000.0,0004.54,0002.80,0002.18
2023-08-03 09:08:00,SystemResetWarning,0835.3,5.00,000.00,030.5,027.9,000.0,038.9,031.4,35.0,0000.0,0004.61,0002.80,0002.16
2023-08-03 09:09:00,SystemResetWarning,0835.2,4.99,000.00,030.5,028.0,000.0,038.9,031.4,35.1,0000.0,0004.52,0002.77,0002.15
2023-08-03 09:10:00,SystemResetWarning,0835.2,5.03,000.00,030.7,028.1,000.0,038.9,031.5,34.8,0000.0,0004.43,0002.74,0002.14
2023-08-03 09:11:00,SystemResetWarning,0835.3,4.97,000.00,030.9,028.3,000.0,038.9,031.6,34.5,0000.0,0004.41,0002.74,0002.15
2023-08-03 09:12:00,SystemResetWarning,0835.2,5.02,000.00,031.0,028.4,000.0,038.9,031.7,34.2,0000.0,0004.48,0002.76,0002.14
2023-08-03 09:13:00,SystemResetWarning,0835.1,5.01,000.00,031.1,028.4,000.0,038.9,031.7,34.1,0000.0,0004.19,0002.67,0002.06
2023-08-03 09:14:00,SystemResetWarning,0834.9,4.99,000.00,031.1,028.5,000.0,039.0,031.7,34.0,0000.0,0003.89,0002.53,0001.96
2023-08-03 09:15:00,SystemResetWarning,0835.4,4.99,000.00,031.1,028.6,000.0,039.0,031.7,33.7,0000.0,0004.04,0002.52,0001.89
2023-08-03 09:16:00,SystemResetWarning,0834.8,5.00,000.00,031.1,027.8,000.0,039.0,031.7,33.3,0000.0,0004.08,0002.50,0001.83
2023-08-03 09:17:00,SystemResetWarning,0834.7,5.00,000.00,031.1,026.0,000.0,038.9,031.5,33.2,0000.0,0004.07,0002.45,0001.76
2023-08-03 09:18:00,SystemResetWarning,0834.9,5.01,000.00,031.0,025.5,000.0,038.8,031.2,33.0,0000.0,0003.90,0002.36,0001.69
2023-08-03 09:19:00,SystemResetWarning,0835.1,5.01,000.00,030.9,025.7,000.0,038.9,031.0,32.8,0000.0,0003.68,0002.27,0001.61
2023-08-03 09:20:00,SystemResetWarning,0835.0,5.00,000.00,030.8,026.0,000.0,038.9,031.0,32.8,0000.0,0003.73,0002.23,0001.55
2023-08-03 09:21:00,SystemResetWarning,0835.1,5.00,000.00,030.7,026.4,000.0,038.9,031.1,32.9,0000.0,0003.86,0002.23,0001.48
2023-08-03 09:22:00,SystemResetWarning,0835.2,5.00,000.00,030.7,026.8,000.0,038.9,031.2,32.7,0000.0,0003.82,0002.19,0001.41
2023-08-03 09:23:00,SystemResetWarning,0835.2,5.01,000.00,030.6,027.1,000.0,038.9,031.2,32.7,0000.0,0003.71,0002.14,0001.36
2023-08-03 09:24:00,SystemResetWarning,0835.3,5.00,000.00,030.6,027.4,000.0,038.9,031.3,32.9,0000.0,0003.79,0002.19,0001.36
2023-08-03 09:25:00,SystemResetWarning,0835.3,5.00,000.00,030.6,027.6,000.0,038.9,031.3,32.9,0000.0,0004.05,0002.26,0001.37
2023-08-03 09:26:00,SystemResetWarning,0835.3,5.00,000.00,030.6,027.8,000.0,038.9,031.3,33.1,0000.0,0004.07,0002.19,0001.37
2023-08-03 09:27:00,SystemResetWarning,0835.2,5.00,000.00,030.6,027.9,000.0,038.9,031.4,33.2,0000.0,0004.07,0002.19,0001.37
2023-08-03 09:28:00,SystemResetWarning,0835.2,4.99,000.00,030.6,028.1,000.0,038.9,031.4,33.2,0000.0,0004.10,0002.20,0001.37
2023-08-03 09:29:00,SystemResetWarning,0835.2,4.99,000.00,030.5,028.2,000.0,038.9,031.4,33.3,0000.0,0004.27,0002.27,0001.38
2023-08-03 09:30:00,SystemResetWarning,0835.2,5.01,000.00,030.5,028.3,000.0,038.9,031.5,33.1,0000.0,0004.41,0002.31,0001.40
2023-08-03 09:31:00,SystemResetWarning,0835.1,5.01,000.00,030.5,028.4,000.0,038.9,031.5,32.8,0000.0,0004.27,0002.27,0001.41
2023-08-03 09:32:00,SystemResetWarning,0835.1,5.01,000.00,030.5,028.4,000.0,038.9,031.5,32.9,0000.0,0004.18,0002.25,0001.42
2023-08-03 09:33:00,SystemResetWarning,0835.0,5.00,000.00,030.6,028.5,000.0,038.9,031.6,33.0,0000.0,0004.16,0002.24,0001.44
2023-08-03 09:34:00,SystemResetWarning,0834.9,5.00,000.00,030.6,028.5,000.0,038.9,031.6,33.0,0000.0,0004.15,0002.26,0001.44
2023-08-03 09:35:00,SystemResetWarning,0834.9,4.99,000.00,030.6,028.6,000.0,038.9,031.6,33.0,0000.0,0004.08,0002.23,0001.45
2023-08-03 09:36:00,SystemResetWarning,0835.2,4.99,000.00,030.6,028.2,000.0,038.9,031.6,32.9,0000.0,0004.03,0002.20,0001.46
2023-08-03 09:37:00,SystemResetWarning,0835.3,5.00,000.00,030.5,026.4,000.0,038.7,031.4,32.9,0000.0,0003.69,0002.20,0001.45
2023-08-03 09:38:00,SystemResetWarning,0835.1,5.02,000.00,030.4,025.5,000.0,038.6,031.2,33.1,0000.0,0003.76,0002.24,0001.44
2023-08-03 09:39:00,SystemResetWarning,0834.8,5.01,000.00,030.3,025.5,000.0,038.6,030.9,33.5,0000.0,0003.62,0002.19,0001.44
2023-08-03 09:40:00,SystemResetWarning,0834.9,5.00,000.00,030.2,025.9,000.0,038.6,030.9,33.7,0000.0,0003.50,0002.14,0001.43
2023-08-03 09:41:00,SystemResetWarning,0835.3,5.01,000.00,030.1,026.3,000.0,038.6,030.9,33.8,0000.0,0003.26,0002.03,0001.38
2023-08-03 09:42:00,SystemResetWarning,0835.1,5.00,000.00,030.1,026.7,000.0,038.6,031.0,33.7,0000.0,0003.23,0001.99,0001.35
2023-08-03 09:43:00,SystemResetWarning,0834.7,4.99,000.00,030.1,027.0,000.0,038.6,031.1,33.4,0000.0,0003.27,0001.98,0001.31
2023-08-03 09:44:00,SystemResetWarning,0834.8,5.00,000.00,030.0,027.3,000.0,038.6,031.1,33.5,0000.0,0003.10,0001.89,0001.26
2023-08-03 09:45:00,SystemResetWarning,0834.8,5.01,000.00,030.0,027.5,000.0,038.5,031.2,33.4,0000.0,0003.26,0001.84,0001.23
2023-08-03 09:46:00,SystemResetWarning,0834.7,5.00,000.00,030.0,027.7,000.0,038.5,031.2,33.3,0000.0,0003.30,0001.82,0001.20
2023-08-03 09:47:00,SystemResetWarning,0834.8,5.00,000.00,030.0,027.9,000.0,038.5,031.2,32.9,0000.0,0003.28,0001.80,0001.18
2023-08-03 09:48:00,SystemResetWarning,0834.9,5.00,000.00,030.0,028.0,000.0,038.5,031.3,32.6,0000.0,0003.24,0001.78,0001.16
2023-08-03 09:49:00,SystemResetWarning,0834.7,5.00,000.00,030.1,028.2,000.0,038.5,031.3,32.3,0000.0,0003.23,0001.74,0001.15
2023-08-03 09:50:00,SystemResetWarning,0835.0,5.00,000.00,030.1,028.3,000.0,038.5,031.3,32.0,0000.0,0003.22,0001.72,0001.13
2023-08-03 09:51:00,SystemResetWarning,0834.8,4.99,000.00,030.1,028.3,000.0,038.5,031.4,31.6,0000.0,0003.19,0001.71,0001.12
2023-08-03 09:52:00,SystemResetWarning,0834.9,4.99,000.00,030.1,028.4,000.0,038.5,031.4,31.8,0000.0,0003.20,0001.71,0001.13
2023-08-03 09:53:00,SystemResetWarning,0835.1,5.00,000.00,030.1,028.5,000.0,038.5,031.4,31.9,0000.0,0003.26,0001.74,0001.11
2023-08-03 09:54:00,SystemResetWarning,0835.3,4.99,000.00,030.1,028.5,000.0,038.5,031.5,31.7,0000.0,0003.24,0001.72,0001.12
2023-08-03 09:55:00,SystemResetWarning,0835.4,5.00,000.00,030.1,028.4,000.0,038.5,031.5,31.6,0000.0,0004.06,0001.76,0001.13
2023-08-03 09:56:00,SystemResetWarning,0835.2,5.00,000.00,030.1,026.8,000.0,038.4,031.3,31.5,0000.0,0003.93,0001.76,0001.12
2023-08-03 09:57:00,SystemResetWarning,0835.2,5.00,000.00,030.0,025.6,000.0,038.3,031.1,31.7,0000.0,0003.73,0001.70,0001.11
2023-08-03 09:58:00,SystemResetWarning,0834.7,5.01,000.00,029.9,025.5,000.0,038.2,030.7,31.7,0000.0,0003.83,0001.71,0001.12
2023-08-03 09:59:00,SystemResetWarning,0834.8,5.00,000.00,029.8,025.8,000.0,038.3,030.7,31.9,0000.0,0003.76,0001.68,0001.12
